Weather History for KCKC - October, 2012

Change the Weather History Date:

Saturday, October 6, 2012

  Actual Average Record
Temperature  
Mean Temperature 34 °F -  
Max Temperature 39 °F 52 °F 73 °F (2004)
Min Temperature 28 °F 35 °F 19 °F (1999)
Degree Days  
Heating Degree Days 32    
Moisture  
Dew Point 22 °F    
Average Humidity 67    
Maximum Humidity 93    
Minimum Humidity 42    
Precipitation  
Precipitation 0.01 in - - ()
Sea Level Pressure  
Sea Level Pressure 30.06 in    
Wind  
Wind Speed 10 mph (NW)    
Max Wind Speed 15 mph    
Max Gust Speed 26 mph    
Visibility 9 miles    
Events Snow    
Averages and records for this station are not official NWS values.
T = Trace of Precipitation, MM = Missing Value Source: NWS Daily Summary

Daily Weather History Graph

Daily Weather History Graph

Search for Another Location

Airport or City:

Trip Planner

Search our weather history database for the weather conditions in past years. The results will help you decide how hot, cold, wet, or windy it might be!

Date:

Astronomy

Oct. 06, 2012 Rise Set
Actual Time 7:08 AM CDT 6:29 PM CDT
Civil Twilight 6:37 AM CDT 7:00 PM CDT
Nautical Twilight 6:01 AM CDT 7:36 PM CDT
Astronomical Twilight 5:25 AM CDT 8:12 PM CDT
Moon 10:25 PM CDT (10/6) 1:23 PM CDT (10/6)
Length of Visible Light 12h 23m
Length of Day
11h 21m
Waning Gibbous, 65% of the Moon is Illuminated
Oct 6
Waning Gibbous
Oct 8
Last Quarter
Oct 15
New
Oct 21
First Quarter
Oct 29
Full

Hourly Weather History & Observations

Time (CDT) Temp. Windchill Dew Point Humidity Pressure Visibility Wind Dir Wind Speed Gust Speed Precip Events Conditions
12:14 AM 30.2 °F 20.2 °F 24.8 °F 80% 29.93 in 7.0 mi NNW 12.7 mph 24.2 mph N/A   Overcast
12:34 AM 30.2 °F 20.8 °F 24.8 °F 80% 29.93 in 10.0 mi NNW 11.5 mph 24.2 mph N/A   Mostly Cloudy
12:54 AM 28.4 °F 18.0 °F 24.8 °F 86% 29.94 in 1.5 mi NW 12.7 mph 24.2 mph N/A Snow Light Snow
1:13 AM 28.4 °F 19.7 °F 26.6 °F 93% 29.95 in 1.2 mi NW 9.2 mph 16.1 mph 0.01 in Snow Light Snow
1:54 AM 28.4 °F 18.0 °F 24.8 °F 86% 29.96 in 7.0 mi NNW 12.7 mph 19.6 mph 0.01 in   Scattered Clouds
2:14 AM 30.2 °F 21.3 °F 24.8 °F 80% 29.96 in 5.0 mi NW 10.4 mph - N/A Snow Light Snow
2:34 AM 30.2 °F 20.2 °F 24.8 °F 80% 29.96 in 4.0 mi NW 12.7 mph 21.9 mph N/A Snow Light Snow
2:54 AM 30.2 °F 20.2 °F 24.8 °F 80% 29.97 in 5.0 mi NW 12.7 mph 26.5 mph N/A   Haze
3:14 AM 30.2 °F 20.2 °F 24.8 °F 80% 29.97 in 10.0 mi NNW 12.7 mph 19.6 mph N/A   Mostly Cloudy
3:34 AM 30.2 °F 21.9 °F 24.8 °F 80% 29.97 in 7.0 mi NW 9.2 mph 16.1 mph N/A   Scattered Clouds
3:53 AM 30.2 °F 19.8 °F 24.8 °F 80% 29.98 in 3.0 mi NW 13.8 mph 20.7 mph N/A Snow Light Snow
4:34 AM 28.4 °F 17.5 °F 24.8 °F 86% 29.99 in 10.0 mi NNW 13.8 mph 19.6 mph N/A   Mostly Cloudy
4:54 AM 28.4 °F 21.2 °F 24.8 °F 86% 29.99 in 5.0 mi NW 6.9 mph - N/A Snow Light Snow
5:14 AM 28.4 °F 17.0 °F 23.0 °F 80% 30.00 in 10.0 mi NNW 15.0 mph 23.0 mph N/A   Mostly Cloudy
5:33 AM 28.4 °F 17.5 °F 23.0 °F 80% 30.00 in 10.0 mi NNW 13.8 mph 23.0 mph N/A   Overcast
5:54 AM 28.4 °F 17.5 °F 23.0 °F 80% 30.01 in 10.0 mi NNW 13.8 mph 23.0 mph N/A   Overcast
6:14 AM 28.4 °F 18.0 °F 23.0 °F 80% 30.01 in 10.0 mi NW 12.7 mph 18.4 mph N/A   Overcast
6:33 AM 28.4 °F 17.5 °F 23.0 °F 80% 30.02 in 10.0 mi NW 13.8 mph 18.4 mph N/A   Overcast
6:54 AM 28.4 °F 18.5 °F 23.0 °F 80% 30.03 in 10.0 mi NNW 11.5 mph 20.7 mph N/A   Mostly Cloudy
7:14 AM 28.4 °F 19.7 °F 23.0 °F 80% 30.04 in 10.0 mi NNW 9.2 mph 24.2 mph N/A   Mostly Cloudy
7:34 AM 28.4 °F 20.4 °F 23.0 °F 80% 30.05 in 10.0 mi NW 8.1 mph 19.6 mph N/A   Mostly Cloudy
7:54 AM 28.4 °F 20.4 °F 24.8 °F 86% 30.06 in 10.0 mi NW 8.1 mph - N/A   Overcast
8:14 AM 30.2 °F 21.9 °F 24.8 °F 80% 30.06 in 10.0 mi NW 9.2 mph 17.3 mph N/A   Overcast
8:34 AM 30.2 °F 20.8 °F 23.0 °F 75% 30.07 in 10.0 mi NW 11.5 mph 18.4 mph N/A   Overcast
9:14 AM 33.8 °F 25.3 °F 24.8 °F 70% 30.08 in 10.0 mi NNW 11.5 mph 16.1 mph N/A   Scattered Clouds
9:33 AM 33.8 °F 26.4 °F 24.8 °F 70% 30.08 in 10.0 mi NW 9.2 mph 25.3 mph N/A   Mostly Cloudy
9:54 AM 33.8 °F 25.3 °F 24.8 °F 70% 30.08 in 10.0 mi NW 11.5 mph 24.2 mph N/A   Mostly Cloudy
10:14 AM 33.8 °F 24.8 °F 24.8 °F 70% 30.09 in 10.0 mi NNW 12.7 mph 21.9 mph N/A   Scattered Clouds
10:33 AM 33.8 °F 24.8 °F 23.0 °F 65% 30.10 in 10.0 mi NW 12.7 mph 18.4 mph N/A   Mostly Cloudy
10:54 AM 35.6 °F 28.0 °F 24.8 °F 65% 30.10 in 10.0 mi NW 10.4 mph 17.3 mph N/A   Mostly Cloudy
11:14 AM 35.6 °F 27.5 °F 23.0 °F 60% 30.11 in 10.0 mi NW 11.5 mph 18.4 mph N/A   Mostly Cloudy
11:33 AM 33.8 °F 26.4 °F 21.2 °F 60% 30.11 in 10.0 mi NW 9.2 mph 20.7 mph N/A   Overcast
11:54 AM 33.8 °F 25.8 °F 21.2 °F 60% 30.11 in 10.0 mi NW 10.4 mph 19.6 mph N/A   Overcast
12:14 PM 35.6 °F 29.2 °F 23.0 °F 60% 30.12 in 10.0 mi NW 8.1 mph 18.4 mph N/A   Mostly Cloudy
12:34 PM 33.8 °F 24.8 °F 24.8 °F 70% 30.12 in 5.0 mi NW 12.7 mph 19.6 mph N/A Snow Light Snow
12:54 PM 37.4 °F 30.8 °F 24.8 °F 60% 30.11 in 10.0 mi WNW 9.2 mph - N/A   Mostly Cloudy
1:14 PM 35.6 °F 26.6 °F 21.2 °F 56% 30.11 in 10.0 mi NW 13.8 mph 19.6 mph N/A   Overcast
1:33 PM 35.6 °F 27.5 °F 19.4 °F 52% 30.12 in 10.0 mi NW 11.5 mph 24.2 mph N/A   Overcast
1:54 PM 37.4 °F 29.3 °F 19.4 °F 48% 30.11 in 10.0 mi NW 12.7 mph 25.3 mph N/A   Mostly Cloudy
2:14 PM 35.6 °F 28.6 °F 21.2 °F 56% 30.11 in 10.0 mi NNW 9.2 mph 19.6 mph N/A   Overcast
2:33 PM 35.6 °F 27.1 °F 19.4 °F 52% 30.11 in 10.0 mi NNW 12.7 mph 20.7 mph N/A   Overcast
2:54 PM 37.4 °F 32.1 °F 17.6 °F 45% 30.10 in 10.0 mi NNW 6.9 mph - N/A   Mostly Cloudy
3:14 PM 37.4 °F 30.3 °F 17.6 °F 45% 30.10 in 10.0 mi NNW 10.4 mph 17.3 mph N/A   Overcast
3:33 PM 39.2 °F 31.2 °F 17.6 °F 42% 30.10 in 10.0 mi NNW 13.8 mph 21.9 mph N/A   Overcast
3:54 PM 39.2 °F 32.5 °F 17.6 °F 42% 30.10 in 10.0 mi NW 10.4 mph 18.4 mph N/A   Overcast
4:14 PM 37.4 °F 31.4 °F 19.4 °F 48% 30.10 in 10.0 mi WNW 8.1 mph - N/A   Mostly Cloudy
4:33 PM 37.4 °F 30.8 °F 19.4 °F 48% 30.10 in 10.0 mi NW 9.2 mph - N/A   Mostly Cloudy
4:54 PM 39.2 °F 35.0 °F 19.4 °F 45% 30.10 in 10.0 mi WNW 5.8 mph 16.1 mph N/A   Overcast
5:14 PM 37.4 °F 32.8 °F 19.4 °F 48% 30.10 in 10.0 mi NW 5.8 mph - N/A   Mostly Cloudy
5:34 PM 37.4 °F 31.4 °F 21.2 °F 52% 30.10 in 10.0 mi WNW 8.1 mph - N/A   Mostly Cloudy
5:53 PM 37.4 °F 31.4 °F 21.2 °F 52% 30.11 in 10.0 mi West 8.1 mph - N/A   Overcast
6:14 PM 32.0 °F 28.7 °F - N/A% 30.10 in 10.0 mi West 3.5 mph - N/A   Scattered Clouds
6:34 PM 33.8 °F 30.8 °F 21.2 °F 60% 30.10 in 10.0 mi West 3.5 mph - N/A   Scattered Clouds
6:54 PM 33.8 °F 30.8 °F 21.2 °F 60% 30.10 in 10.0 mi West 3.5 mph - N/A   Mostly Cloudy
7:13 PM 33.8 °F 30.8 °F 21.2 °F 60% 30.10 in 10.0 mi West 3.5 mph - N/A   Mostly Cloudy
7:34 PM 32.0 °F 27.5 °F 21.2 °F 64% 30.11 in 10.0 mi West 4.6 mph - N/A   Scattered Clouds
7:54 PM 32.0 °F 27.5 °F 21.2 °F 64% 30.10 in 10.0 mi West 4.6 mph - N/A   Scattered Clouds
8:13 PM 30.2 °F 26.7 °F 21.2 °F 69% 30.10 in 10.0 mi WSW 3.5 mph - N/A   Clear
8:33 PM 30.2 °F 25.4 °F 21.2 °F 69% 30.10 in 10.0 mi WSW 4.6 mph - N/A   Clear
8:54 PM 30.2 °F 25.4 °F 19.4 °F 64% 30.10 in 10.0 mi West 4.6 mph - N/A   Clear
9:13 PM 30.2 °F 25.4 °F 19.4 °F 64% 30.10 in 10.0 mi WSW 4.6 mph - N/A   Clear
9:34 PM 30.2 °F 26.7 °F 19.4 °F 64% 30.09 in 10.0 mi WSW 3.5 mph - N/A   Clear
9:54 PM 30.2 °F 25.4 °F 19.4 °F 64% 30.09 in 10.0 mi WSW 4.6 mph - N/A   Clear
10:14 PM 30.2 °F 26.7 °F 19.4 °F 64% 30.09 in 10.0 mi SW 3.5 mph - N/A   Clear
10:33 PM 30.2 °F 25.4 °F 19.4 °F 64% 30.09 in 10.0 mi WSW 4.6 mph - N/A   Clear
10:53 PM 30.2 °F 25.4 °F 21.2 °F 69% 30.08 in 10.0 mi West 4.6 mph - N/A   Clear
11:13 PM 30.2 °F 25.4 °F 21.2 °F 69% 30.08 in 10.0 mi West 4.6 mph - N/A   Clear
11:23 PM 28.4 °F 23.3 °F 21.2 °F 74% 30.08 in 10.0 mi West 4.6 mph - N/A   Clear
11:53 PM 28.4 °F 23.3 °F 21.2 °F 74% 30.07 in 10.0 mi West 4.6 mph - N/A   Clear